This demonstration page uses our WeatherBlox Daily Observations layout. Learn more.

Left ArrowRight Arrow

39.29038, -76.61219

Hourly Observations for January 11, 2017

Temp ( °F °C ) Dew Point ( °F °C ) Humidity (%) Winds ( mph kmh ) Pressure ( in mb ) Visibility ( mi km ) Precip ( " mm )
12:54 am 00:54 undefined 39 3.9 32 0 76 76 undefined N/A 30.19 1023 N/A 0.07 1.78
1:54 am 01:54 undefined 40 4.4 32 0 73 73 undefined N/A 30.20 1023 N/A 0.01 0.25
2:54 am 02:54 undefined 41 5 32 0 70 70 undefined N/A 30.22 1023 N/A 0.00 0.00
3:54 am 03:54 undefined 42 5.6 33 0.6 71 71 undefined N/A 30.21 1023 N/A 0.00 0.00
4:54 am 04:54 undefined 43 6.1 32 0 65 65 undefined N/A 30.23 1024 N/A 0.00 0.00
5:54 am 05:54 undefined 41 5 32 0 70 70 undefined N/A 30.26 1025 N/A 0.00 0.00
6:54 am 06:54 undefined 39 3.9 32 0 76 76 undefined N/A 30.28 1025 N/A 0.00 0.00
7:54 am 07:54 undefined 39 3.9 32 0 76 76 undefined N/A 30.30 1026 N/A 0.00 0.00
8:54 am 08:54 undefined 43 6.1 33 0.6 68 68 undefined N/A 30.36 1028 N/A 0.00 0.00
9:54 am 09:54 undefined 45 7.2 34 1.1 66 66 undefined N/A 30.38 1029 N/A 0.00 0.00
10:54 am 10:54 undefined 49 9.4 36 2.2 61 61 undefined N/A 30.37 1029 N/A 0.00 0.00
11:54 am 11:54 undefined 50 10 36 2.2 59 59 undefined N/A 30.33 1027 N/A 0.00 0.00
12:54 pm 12:54 undefined 50 10 37 2.8 61 61 undefined N/A 30.31 1027 N/A 0.00 0.00
1:54 pm 13:54 undefined 52 11.1 37 2.8 57 57 undefined N/A 30.28 1025 N/A 0.00 0.00
2:54 pm 14:54 undefined 50 10 37 2.8 61 61 undefined N/A 30.28 1025 N/A 0.00 0.00
3:54 pm 15:54 undefined 49 9.4 37 2.8 64 64 undefined N/A 30.26 1025 N/A 0.00 0.00
4:54 pm 16:54 undefined 49 9.4 39 3.9 69 69 undefined N/A 30.27 1025 N/A 0.00 0.00
5:54 pm 17:54 undefined 47 8.3 39 3.9 74 74 undefined N/A 30.26 1025 N/A 0.00 0.00
6:54 pm 18:54 undefined 46 7.8 40 4.4 79 79 undefined N/A 30.24 1024 N/A 0.00 0.00
7:54 pm 19:54 undefined 45 7.2 41 5 86 86 undefined N/A 30.24 1024 N/A 0.06 1.52
8:54 pm 20:54 undefined 45 7.2 41 5 86 86 undefined N/A 30.23 1024 N/A 0.05 1.27
9:54 pm 21:54 undefined 44 6.7 41 5 89 89 undefined N/A 30.23 1024 N/A 0.02 0.51
10:54 pm 22:54 undefined 44 6.7 41 5 89 89 undefined N/A 30.22 1024 N/A 0.01 0.25
11:54 pm 23:54 undefined 44 6.7 41 5 89 89 undefined N/A 30.20 1023 N/A 0.01 0.25

Powered by AerisWeather